Home > Weather > Vaduz > Past weeks

Flag for Liechtenstein Past Weather in Vaduz, Liechtenstein — Yesterday and Last 2 Weeks

Now
58 °F

Cool.


Feels Like: 58 °F
Forecast: 58 / 76 °F
Wind: 2 mph from Southeast

Location: Vaduz

Current Time: Jun 26, 2016 at 11:00:25 PM

Latest Report: Jun 26, 2016 at 10:00 PM


Visibility: N/A

Pressure: 30.14 "Hg

Humidity: 88%

Dew Point: 55 °F

Location of VaduzLocation

Past Weather in Vaduz — Graph

°F

Vaduz Temperature Yesterday

Maximum temperature yesterday: 77 °F (at 4:00 PM)
Minimum temperature yesterday: 62 °F (at 11:00 PM)
Average temperature yesterday: 68 °F

High & Low Weather Summary for the Past Weeks

 TemperatureHumidityPressure
High88 °F (Jun 24, 4:00 PM)95% (Jun 13, 4:00 AM)30.28 "Hg (Jun 13, 4:00 AM)
Low46 °F (Jun 17, 7:00 AM)40% (Jun 24, 2:00 PM)29.57 "Hg (Jun 14, 2:00 PM)
Average63 °F78%29.96 "Hg
* Reported Jun 11 9:00 PM — Jun 26 9:00 PM, Vaduz, Weather by CustomWeather, © 2016

Note: Actual official high and low records may vary slightly from our data, if they occured in-between our weather recording intervals... More about our weather records

Advertising

Vaduz Weather History for the Previous 24 Hours

Scroll right to see more
 ConditionsComfort  
Time TempWeatherWind HumidityBarometerVisibility
9:00 PM
Sun, Jun 26
58 °FCool.2 mph87%30.12 "HgN/A
8:00 PM60 °FFog.1 mph85%30.11 "Hg6 mi
5:00 PM62 °FOvercast.3 mph77%30.09 "Hg3 mi
4:00 PM63 °FMild.5 mph75%30.08 "HgN/A
3:00 PM63 °FMild.3 mph79%30.10 "HgN/A
2:00 PM62 °FFog.3 mph77%30.10 "Hg3 mi
1:00 PM61 °FCool.3 mph84%30.11 "HgN/A
12:00 PM62 °FCool.2 mph77%30.10 "HgN/A
11:00 AM61 °FFog.5 mph89%30.10 "Hg4 mi
10:00 AM61 °FCool.6 mph89%30.09 "HgN/A
9:00 AM60 °FCool.3 mph92%30.09 "HgN/A
8:00 AM60 °FFog.1 mph92%30.09 "Hg2 mi
7:00 AM59 °FCool.1 mph94%30.09 "HgN/A
6:00 AM59 °FCool.3 mph94%30.09 "HgN/A
5:00 AM59 °FRain. Low clouds.1 mph93%30.08 "Hg3 mi
4:00 AM60 °FCool.3 mph94%30.09 "HgN/A
3:00 AM60 °FCool.2 mph92%30.09 "HgN/A
2:00 AM62 °FOvercast.2 mph92%30.07 "Hg12 mi
1:00 AM62 °FMild.No wind92%30.07 "HgN/A
12:00 AM62 °FMild.1 mph92%30.07 "HgN/A
11:00 PM
Sat, Jun 25
62 °FOvercast.1 mph92%30.06 "Hg12 mi
Weather by CustomWeather, © 2016

See weather overviewHow to use our weather pages